Vertical_Velocity
-3 -9 -3 -3 -2 -2 -7 2 1 -4 1 -8 3 1 5 3 2 2 -1 0 0 -2
-7 -3 -10 -3 -6 -4 4 8 3 7 -4 3 -1 3 6 2 0 2 4 3 -1 -2
-8 -5 0 -8 -7 -10 -11 -14 21 3 5 2 0 4 3 3 5 1 3 4 -2 -3
-5 -4 -6 -2 -1 -7 -3 -5 -1 10 22 6 -5 7 1 -0 5 2 5 3 1 1
-3 -3 -3 -5 -0 -0 -9 1 1 -15 -7 31 9 9 -1 4 0 1 1 4 1 1
-1 -3 -4 -2 -5 3 -3 -3 -11 -4 -17 -7 39 25 1 -3 5 3 4 5 -3 2
-0 -1 -1 -2 -0 -2 4 1 -4 7 -11 -13 19 5 1 4 0 -3 1 7 4 -2
-3 -3 -4 -3 -2 -2 3 1 4 -12 0 -4 9 13 -1 1 4 -3 7 3 3 -3
-4 -4 -1 -1 -0 -2 -0 4 2 3 6 -12 -6 -11 -4 6 3 4 -3 6 4 -5
-5 -4 -1 -1 -0 5 -2 -3 5 -1 7 3 11 0 6 10 4 -3 -1 -4 0 -7
-5 -5 -1 -3 2 2 1 -8 -7 2 -3 7 -1 4 2 4 1 -4 1 -1 -3 -4
-3 -4 -1 -1 1 1 -3 6 -3 5 10 2 10 10 -3 4 4 -6 -3 -6 -8 -7
-0 -3 -2 -1 4 2 -1 -2 -5 8 9 3 6 20 7 -6 -12 -4 -7 -4 -6 -4
-0 -3 -1 1 6 2 -1 -4 4 5 21 37 -6 -11 -16 -8 -2 -6 -5 -3 -2 -2
Height
3030 3027 3026 3024 3023 3024 3024 3024 3028 3033 3033 3034 3038 3043 3047 3049 3053 3056 3059 3062 3064 3066
3012 3011 3009 3008 3007 3007 3009 3008 3012 3014 3017 3020 3025 3029 3033 3036 3041 3045 3049 3052 3054 3056
2995 2993 2990 2988 2988 2988 2992 2992 2992 3000 3002 3006 3011 3015 3019 3023 3028 3033 3037 3040 3044 3047
2981 2977 2975 2972 2972 2971 2972 2974 2980 2982 2984 2990 2993 3000 3004 3009 3014 3020 3025 3029 3032 3036
2964 2961 2959 2957 2956 2955 2955 2957 2959 2966 2969 2971 2978 2985 2990 2996 3002 3008 3014 3018 3021 3025
2949 2945 2943 2941 2940 2940 2940 2939 2940 2944 2953 2958 2960 2969 2976 2982 2988 2995 3002 3006 3010 3014
2934 2930 2928 2926 2926 2925 2926 2925 2926 2928 2935 2942 2942 2952 2961 2971 2977 2983 2988 2993 2998 3002
2920 2916 2913 2912 2911 2911 2913 2912 2912 2916 2922 2927 2932 2939 2951 2958 2965 2970 2976 2981 2985 2989
2906 2902 2899 2898 2898 2898 2899 2899 2901 2904 2907 2914 2922 2932 2941 2947 2952 2959 2965 2968 2972 2978
2892 2888 2886 2885 2885 2885 2886 2886 2888 2891 2895 2902 2911 2920 2928 2935 2939 2947 2953 2957 2962 2965
2879 2875 2874 2873 2873 2875 2874 2875 2877 2880 2885 2892 2901 2909 2918 2923 2929 2935 2942 2947 2950 2952
2867 2864 2863 2863 2864 2864 2862 2863 2866 2870 2874 2883 2891 2900 2907 2914 2920 2927 2931 2935 2936 2939
2859 2856 2855 2855 2855 2854 2854 2855 2857 2859 2866 2873 2884 2893 2899 2906 2911 2917 2921 2923 2923 2926
2853 2849 2848 2847 2846 2845 2847 2848 2850 2854 2860 2866 2876 2886 2893 2899 2904 2907 2908 2910 2912 2914